Great Falls, MT

3:23 PM MDT on August 28, 2016 (GMT -0600)
Great Falls International

Weather History for KGTF - November, 2010

Change the Weather History Date:

Saturday, November 27, 2010

  Actual Average Record
Temperature  
Mean Temperature 32 °F 29 °F  
Max Temperature 39 °F 38 °F 64 °F (1914)
Min Temperature 25 °F 19 °F -24 °F (1985)
Degree Days  
Heating Degree Days 33 36  
Month to date heating degree days 990 839  
Since 1 July heating degree days 1854 1859  
Cooling Degree Days 0 0  
Month to date cooling degree days 0 0  
Year to date cooling degree days 199 298  
Moisture  
Dew Point 23 °F    
Average Humidity 77    
Maximum Humidity 100    
Minimum Humidity 54    
Precipitation  
Precipitation 0.01 in 0.02 in 0.89 in (2005)
Month to date precipitation 1.42 0.53  
Year to date precipitation 17.49 14.14  
Snow  
Snow 0.20 in 0.30 in 10.80 in (2005)
Month to date snowfall 14.0 7.2  
Since 1 July snowfall 14.7 12.8  
Since 1 September snowfall 14.7 12.5  
Snow Depth 4.00 in    
Sea Level Pressure  
Sea Level Pressure 29.72 in    
Wind  
Wind Speed 8 mph (SSW)    
Max Wind Speed 22 mph    
Max Gust Speed 26 mph    
Visibility 9 miles    
Events Snow    
T = Trace of Precipitation, MM = Missing Value Source: NWS Daily Summary

Daily Weather History Graph

Daily Weather History Graph

Search for Another Location

Airport or City:

Trip Planner

Search our weather history database for the weather conditions in past years. The results will help you decide how hot, cold, wet, or windy it might be!

Date:

Astronomy

Nov. 27, 2010 Rise Set
Actual Time 7:47 AM MST 4:38 PM MST
Civil Twilight 7:12 AM MST 5:13 PM MST
Nautical Twilight 6:34 AM MST 5:51 PM MST
Astronomical Twilight 5:57 AM MST 6:28 PM MST
Moon 11:17 PM MST (11/27) 12:16 PM MST (11/27)
Length of Visible Light 10h 00m
Length of Day
8h 51m
Waning Gibbous, 62% of the Moon is Illuminated
Nov 27
Waning Gibbous
Nov 28
Last Quarter
Dec 5
New
Dec 13
First Quarter
Dec 21
Full

Hourly Weather History & Observations

Time (MST) Temp. Windchill Dew Point Humidity Pressure Visibility Wind Dir Wind Speed Gust Speed Precip Events Conditions
12:53 AM 32.0 °F 19.8 °F 21.0 °F 64% 29.89 in 10.0 mi SSW 20.7 mph - N/A   Clear
1:53 AM 32.0 °F 20.8 °F 21.0 °F 64% 29.88 in 10.0 mi SSW 17.3 mph - N/A   Clear
2:53 AM 32.0 °F 22.5 °F 21.0 °F 64% 29.88 in 10.0 mi SSW 12.7 mph - N/A   Clear
3:53 AM 32.0 °F 21.6 °F 21.9 °F 66% 29.85 in 10.0 mi SSW 15.0 mph - N/A   Clear
4:53 AM 33.1 °F 24.4 °F 21.9 °F 64% 29.83 in 10.0 mi SSW 11.5 mph - N/A   Clear
5:53 AM 32.0 °F 22.5 °F 21.0 °F 64% 29.81 in 10.0 mi SSW 12.7 mph - N/A   Clear
6:53 AM 30.9 °F 21.7 °F 21.0 °F 67% 29.81 in 10.0 mi South 11.5 mph - N/A   Partly Cloudy
7:53 AM 28.9 °F 21.9 °F 19.9 °F 69% 29.81 in 10.0 mi South 6.9 mph - N/A   Clear
8:53 AM 32.0 °F 23.0 °F 19.9 °F 61% 29.78 in 10.0 mi South 11.5 mph - N/A   Clear
9:53 AM 34.0 °F 25.0 °F 21.9 °F 61% 29.75 in 10.0 mi South 12.7 mph - N/A   Clear
10:53 AM 37.0 °F 28.5 °F 23.0 °F 57% 29.73 in 10.0 mi SSW 13.8 mph - N/A   Clear
11:53 AM 36.0 °F 31.1 °F 25.0 °F 64% 29.70 in 10.0 mi WSW 5.8 mph - N/A   Overcast
12:53 PM 37.0 °F 32.4 °F 26.1 °F 65% 29.66 in 10.0 mi West 5.8 mph - N/A   Mostly Cloudy
1:53 PM 37.9 °F 34.4 °F 25.0 °F 60% 29.65 in 10.0 mi SW 4.6 mph - N/A   Mostly Cloudy
2:53 PM 37.9 °F - 26.1 °F 62% 29.64 in 10.0 mi Calm Calm - N/A   Overcast
3:53 PM 36.0 °F - 27.0 °F 70% 29.64 in 10.0 mi Calm Calm - N/A   Overcast
4:53 PM 34.0 °F 29.8 °F 27.0 °F 75% 29.64 in 10.0 mi East 4.6 mph - N/A   Overcast
5:53 PM 32.0 °F 27.5 °F 26.1 °F 79% 29.65 in 10.0 mi East 4.6 mph - N/A   Mostly Cloudy
6:53 PM 28.9 °F - 25.0 °F 85% 29.64 in 10.0 mi Calm Calm - N/A   Overcast
7:53 PM 26.1 °F 20.5 °F 24.1 °F 92% 29.65 in 10.0 mi ENE 4.6 mph - N/A   Scattered Clouds
8:53 PM 25.0 °F 20.7 °F 23.0 °F 92% 29.65 in 10.0 mi ENE 3.5 mph - N/A   Overcast
9:53 PM 27.0 °F 21.6 °F 23.0 °F 85% 29.64 in 10.0 mi NNE 4.6 mph - N/A   Overcast
10:53 PM 25.0 °F 18.1 °F 24.1 °F 96% 29.66 in 9.0 mi WSW 5.8 mph - N/A   Overcast
11:35 PM 24.8 °F 17.9 °F 24.8 °F 100% 29.55 in 2.5 mi WNW 5.8 mph - 0.00 in Snow Light Snow
11:46 PM 24.8 °F 19.1 °F 24.8 °F 100% 29.55 in 1.8 mi NW 4.6 mph - 0.00 in Snow Light Snow
11:53 PM 25.0 °F 18.1 °F 24.1 °F 96% 29.66 in 1.2 mi NW 5.8 mph - 0.01 in Snow Light Snow